Time,TemperatureF,DewpointF,PressureIn,WindDirection,WindDirectionDegrees,WindSpeedMPH,WindSpeedGustMPH,Humidity,HourlyPrecipIn,Conditions,Clouds,dailyrainin,SoftwareType,DateUTC
2013-09-14 00:00:00,48.3,45.2,30.12,East,101,1.0,1.0,89,0.00,,---,0.00,VWS V14.01,2013-09-14 04:00:00,
2013-09-14 00:30:00,47.6,44.8,30.12,East,101,1.0,1.0,90,0.00,,---,0.00,VWS V14.01,2013-09-14 04:30:00,
2013-09-14 01:00:00,46.9,44.4,30.12,East,101,0.0,1.0,91,0.00,,---,0.00,VWS V14.01,2013-09-14 05:00:00,
2013-09-14 01:30:00,46.4,44.2,30.12,East,101,1.0,1.0,92,0.00,,---,0.00,VWS V14.01,2013-09-14 05:30:00,
2013-09-14 02:00:00,45.9,44.0,30.12,East,101,1.0,1.0,93,0.00,,---,0.00,VWS V14.01,2013-09-14 06:00:00,
2013-09-14 02:30:00,45.4,43.5,30.13,ESE,105,0.0,1.0,93,0.00,,---,0.00,VWS V14.01,2013-09-14 06:30:00,
2013-09-14 03:00:00,44.9,43.3,30.13,ESE,104,0.0,1.0,94,0.00,,---,0.00,VWS V14.01,2013-09-14 07:00:00,
2013-09-14 03:30:00,44.3,43.0,30.13,ESE,105,0.0,1.0,95,0.00,,---,0.00,VWS V14.01,2013-09-14 07:30:00,
2013-09-14 04:00:00,44.2,42.9,30.14,ESE,105,0.0,0.0,95,0.00,,---,0.00,VWS V14.01,2013-09-14 08:00:00,
2013-09-14 04:30:00,43.7,42.4,30.14,ESE,113,0.0,0.0,95,0.00,,---,0.00,VWS V14.01,2013-09-14 08:30:00,
2013-09-14 05:00:00,43.1,41.8,30.14,ESE,113,0.0,0.0,95,0.00,,---,0.00,VWS V14.01,2013-09-14 09:00:00,
2013-09-14 05:30:00,42.7,41.6,30.15,ESE,113,0.0,0.0,96,0.00,,---,0.00,VWS V14.01,2013-09-14 09:30:00,
2013-09-14 06:00:00,41.9,40.8,30.15,ESE,113,0.0,0.0,96,0.00,,---,0.00,VWS V14.01,2013-09-14 10:00:00,
2013-09-14 06:30:00,42.0,40.9,30.16,ESE,113,0.0,0.0,96,0.00,,---,0.00,VWS V14.01,2013-09-14 10:30:00,
2013-09-14 07:00:00,41.7,40.7,30.17,ESE,113,0.0,0.0,96,0.00,,---,0.00,VWS V14.01,2013-09-14 11:00:00,
2013-09-14 07:30:00,42.7,41.9,30.17,ESE,113,0.0,0.0,97,0.00,,---,0.00,VWS V14.01,2013-09-14 11:30:00,
2013-09-14 08:00:00,43.1,42.3,30.18,ESE,113,0.0,0.0,97,0.00,,---,0.00,VWS V14.01,2013-09-14 12:00:00,
2013-09-14 08:30:00,43.7,42.6,30.18,ESE,113,0.0,0.0,96,0.00,,---,0.00,VWS V14.01,2013-09-14 12:30:00,
2013-09-14 09:00:00,45.6,44.8,30.19,ESE,113,0.0,0.0,97,0.00,,---,0.00,VWS V14.01,2013-09-14 13:00:00,
2013-09-14 09:30:00,47.6,46.5,30.19,East,95,0.0,0.0,96,0.00,,---,0.00,VWS V14.01,2013-09-14 13:30:00,
2013-09-14 10:00:00,50.3,46.6,30.20,SE,140,2.0,2.0,87,0.00,,---,0.00,VWS V14.01,2013-09-14 14:00:00,
2013-09-14 10:30:00,52.2,46.2,30.21,NW,314,1.0,3.0,80,0.00,,---,0.00,VWS V14.01,2013-09-14 14:30:00,
2013-09-14 11:00:00,54.0,45.9,30.20,WNW,292,0.0,4.0,74,0.00,,---,0.00,VWS V14.01,2013-09-14 15:00:00,
2013-09-14 11:30:00,55.9,44.7,30.19,WSW,256,2.0,6.0,66,0.00,,---,0.00,VWS V14.01,2013-09-14 15:30:00,
2013-09-14 12:00:00,57.4,44.9,30.19,WNW,290,3.0,6.0,63,0.00,,---,0.00,VWS V14.01,2013-09-14 16:00:00,
2013-09-14 12:30:00,58.9,44.2,30.19,West,281,2.0,8.0,58,0.00,,---,0.00,VWS V14.01,2013-09-14 16:30:00,
2013-09-14 13:00:00,60.8,44.1,30.18,West,276,4.0,6.0,54,0.00,,---,0.00,VWS V14.01,2013-09-14 17:00:00,
2013-09-14 13:30:00,62.8,44.4,30.17,WNW,285,0.0,5.0,51,0.00,,---,0.00,VWS V14.01,2013-09-14 17:30:00,
2013-09-14 14:00:00,65.5,44.2,30.16,West,280,1.0,4.0,46,0.00,,---,0.00,VWS V14.01,2013-09-14 18:00:00,
2013-09-14 14:30:00,66.0,44.7,30.15,West,264,2.0,5.0,46,0.00,,---,0.00,VWS V14.01,2013-09-14 18:30:00,
2013-09-14 15:00:00,67.1,44.5,30.14,NNW,342,0.0,4.0,44,0.00,,---,0.00,VWS V14.01,2013-09-14 19:00:00,
2013-09-14 15:30:00,68.1,42.2,30.12,West,259,2.0,5.0,39,0.00,,---,0.00,VWS V14.01,2013-09-14 19:30:00,
2013-09-14 16:00:00,68.6,47.6,30.11,West,264,1.0,6.0,47,0.00,,---,0.00,VWS V14.01,2013-09-14 20:00:00,
2013-09-14 16:30:00,70.4,44.3,30.10,NE,34,0.0,6.0,39,0.00,,---,0.00,VWS V14.01,2013-09-14 20:30:00,
2013-09-14 17:00:00,69.8,43.8,30.10,WSW,240,0.0,5.0,39,0.00,,---,0.00,VWS V14.01,2013-09-14 21:00:00,
2013-09-14 17:30:00,70.6,43.1,30.10,SW,226,2.0,5.0,37,0.00,,---,0.00,VWS V14.01,2013-09-14 21:30:00,
2013-09-14 18:00:00,70.1,44.0,30.10,SW,233,2.0,5.0,39,0.00,,---,0.00,VWS V14.01,2013-09-14 22:00:00,
2013-09-14 18:30:00,67.3,47.5,30.10,West,270,0.0,4.0,49,0.00,,---,0.00,VWS V14.01,2013-09-14 22:30:00,
2013-09-14 19:00:00,65.5,51.3,30.09,ESE,115,1.0,1.0,60,0.00,,---,0.00,VWS V14.01,2013-09-14 23:00:00,
2013-09-14 19:30:00,62.0,49.7,30.08,ESE,116,1.0,1.0,64,0.00,,---,0.00,VWS V14.01,2013-09-14 23:30:00,
2013-09-14 20:00:00,57.7,48.8,30.09,ESE,114,1.0,1.0,72,0.00,,---,0.00,VWS V14.01,2013-09-15 00:00:00,
2013-09-14 20:30:00,55.3,47.5,30.09,ESE,114,0.0,1.0,75,0.00,,---,0.00,VWS V14.01,2013-09-15 00:30:00,
2013-09-14 21:00:00,53.7,47.0,30.09,ESE,114,0.0,1.0,78,0.00,,---,0.00,VWS V14.01,2013-09-15 01:00:00,
2013-09-14 21:30:00,52.2,46.9,30.10,ESE,114,0.0,1.0,82,0.00,,---,0.00,VWS V14.01,2013-09-15 01:30:00,
2013-09-14 22:00:00,51.4,47.0,30.09,ESE,114,0.0,1.0,85,0.00,,---,0.00,VWS V14.01,2013-09-15 02:00:00,
2013-09-14 22:30:00,50.5,46.8,30.09,ESE,114,0.0,1.0,87,0.00,,---,0.00,VWS V14.01,2013-09-15 02:30:00,
2013-09-14 23:00:00,49.6,46.5,30.09,ESE,114,0.0,1.0,89,0.00,,---,0.00,VWS V14.01,2013-09-15 03:00:00,
2013-09-14 23:30:00,48.9,46.1,30.09,ESE,115,0.0,1.0,90,0.00,,---,0.00,VWS V14.01,2013-09-15 03:30:00,